Tabellarische Ansicht des 10.12.2007


Die einzelnen Werte des Tages

Uhrzeit Temperatur Luftdruck Luftfeuchte Wind Hi-Wind Taupunkt THW Index Wind Chill Heat Index Solar- strahlung Regen

00:00

5.8 C

989.3 hpa

86 %

14.5 km/h aus 108

24.1 km/h aus SSE

3.7 C

2.8 C

2.8 C

5.8 C

0 W/m

0.00 mm

00:05

5.9 C

989.3 hpa

86 %

14.5 km/h aus 108

22.5 km/h aus SE

3.7 C

2.8 C

2.9 C

5.8 C

0 W/m

0.00 mm

00:10

5.9 C

989.3 hpa

86 %

11.3 km/h aus 109

19.3 km/h aus ESE

3.7 C

3.4 C

3.5 C

5.8 C

0 W/m

0.00 mm

00:15

5.9 C

989.2 hpa

85 %

12.9 km/h aus 110

30.6 km/h aus SE

3.6 C

3.2 C

3.2 C

5.9 C

0 W/m

0.00 mm

00:20

5.9 C

989.2 hpa

85 %

11.3 km/h aus 112

20.9 km/h aus SSE

3.6 C

3.5 C

3.6 C

5.9 C

0 W/m

0.00 mm

00:25

5.9 C

989.2 hpa

85 %

11.3 km/h aus 111

24.1 km/h aus SSE

3.6 C

3.5 C

3.6 C

5.9 C

0 W/m

0.00 mm

00:30

5.9 C

989.0 hpa

85 %

12.9 km/h aus 115

20.9 km/h aus ESE

3.6 C

3.2 C

3.2 C

5.9 C

0 W/m

0.00 mm

00:35

5.9 C

989.0 hpa

85 %

14.5 km/h aus 112

24.1 km/h aus SSE

3.6 C

2.9 C

2.9 C

5.9 C

0 W/m

0.00 mm

00:40

6.0 C

989.0 hpa

85 %

16.1 km/h aus 110

29.0 km/h aus S

3.7 C

2.7 C

2.7 C

5.9 C

0 W/m

0.00 mm

00:45

5.9 C

989.0 hpa

85 %

12.9 km/h aus 108

29.0 km/h aus SSE

3.6 C

3.2 C

3.2 C

5.9 C

0 W/m

0.00 mm

00:50

5.9 C

989.0 hpa

85 %

12.9 km/h aus 110

25.7 km/h aus ESE

3.6 C

3.2 C

3.2 C

5.9 C

0 W/m

0.00 mm

00:55

5.9 C

989.0 hpa

85 %

16.1 km/h aus 112

22.5 km/h aus SE

3.6 C

2.6 C

2.6 C

5.8 C

0 W/m

0.00 mm

01:00

5.8 C

988.9 hpa

86 %

17.7 km/h aus 112

25.7 km/h aus SE

3.7 C

2.2 C

2.3 C

5.8 C

0 W/m

0.00 mm

01:05

5.8 C

988.9 hpa

86 %

16.1 km/h aus 107

27.4 km/h aus SSE

3.6 C

2.4 C

2.4 C

5.7 C

0 W/m

0.00 mm

01:10

5.8 C

988.9 hpa

86 %

16.1 km/h aus 115

25.7 km/h aus SSE

3.6 C

2.4 C

2.4 C

5.7 C

0 W/m

0.00 mm

01:15

5.7 C

988.9 hpa

86 %

14.5 km/h aus 110

24.1 km/h aus SSE

3.6 C

2.6 C

2.7 C

5.7 C

0 W/m

0.00 mm

01:20

5.8 C

988.9 hpa

86 %

17.7 km/h aus 111

25.7 km/h aus SSE

3.6 C

2.2 C

2.2 C

5.7 C

0 W/m

0.00 mm

01:25

5.8 C

988.9 hpa

86 %

14.5 km/h aus 107

25.7 km/h aus SSE

3.6 C

2.7 C

2.7 C

5.7 C

0 W/m

0.00 mm

01:30

5.8 C

989.0 hpa

86 %

12.9 km/h aus 110

20.9 km/h aus ENE

3.7 C

3.1 C

3.1 C

5.8 C

0 W/m

0.00 mm

01:35

5.8 C

989.0 hpa

86 %

14.5 km/h aus 109

24.1 km/h aus SSE

3.7 C

2.8 C

2.8 C

5.8 C

0 W/m

0.00 mm

01:40

5.9 C

989.0 hpa

86 %

14.5 km/h aus 99

24.1 km/h aus SE

3.7 C

2.8 C

2.9 C

5.8 C

0 W/m

0.00 mm

01:45

5.9 C

989.0 hpa

85 %

14.5 km/h aus 111

22.5 km/h aus ESE

3.6 C

2.8 C

2.9 C

5.8 C

0 W/m

0.00 mm

01:50

5.9 C

989.0 hpa

85 %

11.3 km/h aus 107

20.9 km/h aus SE

3.6 C

3.4 C

3.5 C

5.8 C

0 W/m

0.00 mm

01:55

5.8 C

989.0 hpa

85 %

11.3 km/h aus 113

19.3 km/h aus SE

3.5 C

3.4 C

3.4 C

5.8 C

0 W/m

0.00 mm

02:00

5.8 C

989.0 hpa

85 %

9.7 km/h aus 111

20.9 km/h aus ESE

3.5 C

3.7 C

3.7 C

5.8 C

0 W/m

0.00 mm

02:05

5.8 C

989.0 hpa

86 %

9.7 km/h aus 107

17.7 km/h aus SE

3.6 C

3.6 C

3.7 C

5.7 C

0 W/m

0.00 mm

02:10

5.8 C

989.0 hpa

86 %

11.3 km/h aus 109

19.3 km/h aus ESE

3.6 C

3.3 C

3.3 C

5.7 C

0 W/m

0.00 mm

02:15

5.7 C

989.0 hpa

86 %

11.3 km/h aus 114

22.5 km/h aus SE

3.6 C

3.2 C

3.3 C

5.7 C

0 W/m

0.00 mm

02:20

5.7 C

989.0 hpa

86 %

12.9 km/h aus 113

20.9 km/h aus SE

3.6 C

2.9 C

3.0 C

5.7 C

0 W/m

0.00 mm

02:25

5.8 C

989.0 hpa

86 %

17.7 km/h aus 112

27.4 km/h aus E

3.6 C

2.2 C

2.2 C

5.7 C

0 W/m

0.00 mm

02:30

5.9 C

989.0 hpa

86 %

16.1 km/h aus 107

27.4 km/h aus SE

3.7 C

2.6 C

2.6 C

5.8 C

0 W/m

0.00 mm

02:35

6.0 C

989.0 hpa

86 %

16.1 km/h aus 105

25.7 km/h aus SE

3.8 C

2.7 C

2.7 C

5.9 C

0 W/m

0.00 mm

02:40

6.0 C

989.0 hpa

86 %

16.1 km/h aus 112

27.4 km/h aus SSE

3.8 C

2.7 C

2.7 C

5.9 C

0 W/m

0.00 mm

02:45

6.1 C

989.1 hpa

86 %

14.5 km/h aus 114

24.1 km/h aus SE

3.9 C

3.0 C

3.1 C

6.0 C

0 W/m

0.00 mm

02:50

6.1 C

989.1 hpa

86 %

16.1 km/h aus 105

27.4 km/h aus SSE

3.9 C

2.7 C

2.8 C

6.0 C

0 W/m

0.00 mm

02:55

6.1 C

989.1 hpa

86 %

16.1 km/h aus 109

29.0 km/h aus SE

3.9 C

2.8 C

2.8 C

6.1 C

0 W/m

0.00 mm

03:00

6.2 C

989.0 hpa

86 %

17.7 km/h aus 109

30.6 km/h aus SE

4.0 C

2.6 C

2.7 C

6.1 C

0 W/m

0.20 mm

03:05

6.2 C

989.0 hpa

85 %

17.7 km/h aus 108

30.6 km/h aus SSW

3.8 C

2.6 C

2.7 C

6.1 C

0 W/m

0.00 mm

03:10

6.2 C

989.0 hpa

85 %

17.7 km/h aus 109

32.2 km/h aus SE

3.9 C

2.7 C

2.7 C

6.2 C

0 W/m

0.00 mm

03:15

6.2 C

989.1 hpa

85 %

17.7 km/h aus 108

30.6 km/h aus S

3.9 C

2.7 C

2.7 C

6.2 C

0 W/m

0.00 mm

03:20

6.2 C

989.1 hpa

84 %

17.7 km/h aus 113

29.0 km/h aus SSE

3.7 C

2.7 C

2.7 C

6.2 C

0 W/m

0.00 mm

03:25

6.2 C

989.1 hpa

84 %

16.1 km/h aus 113

27.4 km/h aus SE

3.7 C

2.8 C

2.9 C

6.1 C

0 W/m

0.00 mm

03:30

6.2 C

989.1 hpa

84 %

19.3 km/h aus 111

29.0 km/h aus SSE

3.7 C

2.4 C

2.4 C

6.1 C

0 W/m

0.00 mm

03:35

6.2 C

989.1 hpa

84 %

20.9 km/h aus 112

33.8 km/h aus SSE

3.7 C

2.2 C

2.2 C

6.1 C

0 W/m

0.00 mm

03:40

6.2 C

989.1 hpa

84 %

17.7 km/h aus 112

27.4 km/h aus SE

3.7 C

2.7 C

2.7 C

6.2 C

0 W/m

0.00 mm

03:45

6.2 C

989.2 hpa

83 %

17.7 km/h aus 109

29.0 km/h aus SE

3.5 C

2.6 C

2.7 C

6.1 C

0 W/m

0.00 mm

03:50

6.2 C

989.2 hpa

83 %

14.5 km/h aus 112

27.4 km/h aus SE

3.5 C

3.1 C

3.2 C

6.1 C

0 W/m

0.00 mm

03:55

6.2 C

989.2 hpa

84 %

14.5 km/h aus 113

24.1 km/h aus ESE

3.7 C

3.2 C

3.2 C

6.2 C

0 W/m

0.00 mm

04:00

6.2 C

989.3 hpa

84 %

14.5 km/h aus 112

32.2 km/h aus SSE

3.7 C

3.2 C

3.2 C

6.2 C

0 W/m

0.00 mm

04:05

6.2 C

989.3 hpa

84 %

12.9 km/h aus 113

22.5 km/h aus SE

3.7 C

3.5 C

3.6 C

6.2 C

0 W/m

0.00 mm

04:10

6.2 C

989.3 hpa

84 %

12.9 km/h aus 111

20.9 km/h aus SE

3.7 C

3.4 C

3.5 C

6.1 C

0 W/m

0.00 mm

04:15

6.2 C

989.3 hpa

85 %

12.9 km/h aus 112

22.5 km/h aus SSE

3.8 C

3.4 C

3.5 C

6.1 C

0 W/m

0.00 mm

04:20

6.2 C

989.3 hpa

85 %

11.3 km/h aus 109

20.9 km/h aus ESE

3.8 C

3.8 C

3.8 C

6.1 C

0 W/m

0.00 mm

04:25

6.2 C

989.3 hpa

85 %

12.9 km/h aus 112

20.9 km/h aus SE

3.8 C

3.4 C

3.5 C

6.1 C

0 W/m

0.00 mm

04:30

6.1 C

989.4 hpa

85 %

11.3 km/h aus 109

22.5 km/h aus SE

3.8 C

3.7 C

3.8 C

6.1 C

0 W/m

0.00 mm

04:35

6.1 C

989.4 hpa

85 %

11.3 km/h aus 114

19.3 km/h aus SE

3.8 C

3.7 C

3.8 C

6.1 C

0 W/m

0.00 mm

04:40

6.1 C

989.4 hpa

85 %

9.7 km/h aus 113

17.7 km/h aus ESE

3.7 C

3.9 C

4.0 C

6.0 C

0 W/m

0.00 mm

04:45

6.1 C

989.5 hpa

85 %

9.7 km/h aus 112

19.3 km/h aus SE

3.7 C

3.9 C

4.0 C

6.0 C

0 W/m

0.00 mm

04:50

6.1 C

989.5 hpa

85 %

9.7 km/h aus 112

17.7 km/h aus S

3.7 C

3.9 C

4.0 C

6.0 C

0 W/m

0.00 mm

04:55

6.0 C

989.5 hpa

85 %

12.9 km/h aus 110

24.1 km/h aus ESE

3.7 C

3.3 C

3.3 C

5.9 C

0 W/m

0.00 mm

05:00

6.0 C

989.6 hpa

85 %

12.9 km/h aus 112

19.3 km/h aus SE

3.7 C

3.3 C

3.3 C

5.9 C

0 W/m

0.00 mm

05:05

6.0 C

989.6 hpa

85 %

11.3 km/h aus 112

24.1 km/h aus SE

3.7 C

3.6 C

3.6 C

5.9 C

0 W/m

0.00 mm

05:10

6.0 C

989.6 hpa

85 %

9.7 km/h aus 114

19.3 km/h aus SE

3.7 C

3.9 C

3.9 C

5.9 C

0 W/m

0.00 mm

05:15

5.9 C

989.8 hpa

86 %

11.3 km/h aus 112

20.9 km/h aus ESE

3.8 C

3.5 C

3.6 C

5.9 C

0 W/m

0.00 mm

05:20

5.9 C

989.8 hpa

86 %

8.0 km/h aus 111

16.1 km/h aus ESE

3.8 C

4.2 C

4.2 C

5.9 C

0 W/m

0.00 mm

05:25

5.9 C

989.8 hpa

87 %

9.7 km/h aus 111

17.7 km/h aus ESE

3.9 C

3.8 C

3.8 C

5.9 C

0 W/m

0.00 mm

05:30

5.9 C

989.9 hpa

87 %

11.3 km/h aus 110

20.9 km/h aus SE

3.9 C

3.5 C

3.6 C

5.9 C

0 W/m

0.00 mm

05:35

5.9 C

989.9 hpa

87 %

8.0 km/h aus 108

17.7 km/h aus SSE

3.9 C

4.1 C

4.2 C

5.8 C

0 W/m

0.00 mm

05:40

5.9 C

989.9 hpa

87 %

9.7 km/h aus 113

19.3 km/h aus SE

3.9 C

3.7 C

3.8 C

5.8 C

0 W/m

0.00 mm

05:45

5.9 C

990.0 hpa

87 %

9.7 km/h aus 110

17.7 km/h aus ESE

3.9 C

3.7 C

3.8 C

5.8 C

0 W/m

0.00 mm

05:50

5.8 C

990.0 hpa

87 %

9.7 km/h aus 109

17.7 km/h aus SE

3.8 C

3.7 C

3.7 C

5.8 C

0 W/m

0.00 mm

05:55

5.8 C

990.0 hpa

87 %

8.0 km/h aus 112

14.5 km/h aus SE

3.8 C

4.1 C

4.1 C

5.8 C

0 W/m

0.00 mm

06:00

5.8 C

990.1 hpa

88 %

8.0 km/h aus 105

16.1 km/h aus SE

4.0 C

4.1 C

4.1 C

5.8 C

0 W/m

0.00 mm

06:05

5.8 C

990.1 hpa

88 %

6.4 km/h aus 108

11.3 km/h aus ESE

4.0 C

4.5 C

4.6 C

5.8 C

0 W/m

0.00 mm

06:10

5.8 C

990.1 hpa

88 %

6.4 km/h aus 116

11.3 km/h aus ESE

4.0 C

4.5 C

4.6 C

5.8 C

0 W/m

0.00 mm

06:15

5.8 C

990.5 hpa

88 %

8.0 km/h aus 104

19.3 km/h aus SE

4.0 C

4.1 C

4.1 C

5.8 C

0 W/m

0.00 mm

06:20

5.8 C

990.5 hpa

88 %

8.0 km/h aus 110

17.7 km/h aus SE

4.0 C

4.1 C

4.1 C

5.8 C

0 W/m

0.00 mm

06:25

5.8 C

990.5 hpa

88 %

8.0 km/h aus 111

16.1 km/h aus ESE

4.0 C

4.1 C

4.1 C

5.8 C

0 W/m

0.00 mm

06:30

5.8 C

990.6 hpa

88 %

8.0 km/h aus 112

19.3 km/h aus SE

4.0 C

4.1 C

4.1 C

5.8 C

0 W/m

0.00 mm

06:35

5.8 C

990.6 hpa

88 %

4.8 km/h aus 113

11.3 km/h aus ESE

4.0 C

5.1 C

5.1 C

5.8 C

0 W/m

0.00 mm

06:40

5.8 C

990.6 hpa

88 %

4.8 km/h aus 113

8.0 km/h aus SE

4.0 C

5.1 C

5.1 C

5.8 C

0 W/m

0.00 mm

06:45

5.8 C

990.9 hpa

88 %

4.8 km/h aus 115

11.3 km/h aus ESE

4.0 C

5.1 C

5.1 C

5.8 C

0 W/m

0.00 mm

06:50

5.8 C

990.9 hpa

89 %

4.8 km/h aus 113

8.0 km/h aus ESE

4.2 C

5.1 C

5.1 C

5.8 C

0 W/m

0.00 mm

06:55

5.8 C

990.9 hpa

89 %

3.2 km/h aus 113

8.0 km/h aus E

4.2 C

5.8 C

5.8 C

5.8 C

0 W/m

0.20 mm

07:00

5.8 C

991.0 hpa

89 %

4.8 km/h aus 108

8.0 km/h aus E

4.1 C

5.1 C

5.1 C

5.8 C

0 W/m

0.00 mm

07:05

5.8 C

991.0 hpa

89 %

3.2 km/h aus 107

6.4 km/h aus E

4.1 C

5.8 C

5.8 C

5.8 C

0 W/m

0.00 mm

07:10

5.7 C

991.0 hpa

90 %

4.8 km/h aus 108

6.4 km/h aus E

4.2 C

5.0 C

5.0 C

5.7 C

0 W/m

0.00 mm

07:15

5.7 C

991.3 hpa

90 %

4.8 km/h aus 109

9.7 km/h aus E

4.2 C

5.0 C

5.0 C

5.7 C

0 W/m

0.00 mm

07:20

5.7 C

991.3 hpa

90 %

4.8 km/h aus 106

9.7 km/h aus ESE

4.2 C

4.9 C

4.9 C

5.7 C

0 W/m

0.00 mm

07:25

5.7 C

991.3 hpa

90 %

3.2 km/h aus 101

6.4 km/h aus ESE

4.2 C

5.7 C

5.7 C

5.7 C

0 W/m

0.00 mm

07:30

5.7 C

991.5 hpa

90 %

4.8 km/h aus 108

8.0 km/h aus E

4.2 C

4.9 C

4.9 C

5.7 C

0 W/m

0.00 mm

07:35

5.7 C

991.5 hpa

91 %

3.2 km/h aus 111

8.0 km/h aus ESE

4.3 C

5.7 C

5.7 C

5.7 C

0 W/m

0.20 mm

07:40

5.6 C

991.5 hpa

91 %

3.2 km/h aus 115

6.4 km/h aus ESE

4.3 C

5.6 C

5.6 C

5.6 C

0 W/m

0.00 mm

07:45

5.6 C

991.7 hpa

91 %

3.2 km/h aus 108

6.4 km/h aus ESE

4.3 C

5.6 C

5.6 C

5.6 C

0 W/m

0.00 mm

07:50

5.6 C

991.7 hpa

91 %

4.8 km/h aus 110

8.0 km/h aus ENE

4.3 C

4.8 C

4.8 C

5.6 C

0 W/m

0.00 mm

07:55

5.6 C

991.7 hpa

91 %

1.6 km/h aus 110

4.8 km/h aus ENE

4.3 C

5.6 C

5.6 C

5.6 C

0 W/m

0.00 mm

08:00

5.6 C

992.0 hpa

91 %

3.2 km/h aus 109

6.4 km/h aus ENE

4.2 C

5.6 C

5.6 C

5.6 C

0 W/m

0.00 mm

08:05

5.6 C

992.0 hpa

91 %

1.6 km/h aus 108

4.8 km/h aus E

4.2 C

5.6 C

5.6 C

5.6 C

0 W/m

0.00 mm

08:10

5.6 C

992.0 hpa

91 %

3.2 km/h aus 112

6.4 km/h aus E

4.2 C

5.6 C

5.6 C

5.6 C

0 W/m

0.00 mm

08:15

5.6 C

992.3 hpa

91 %

1.6 km/h aus 105

4.8 km/h aus E

4.2 C

5.6 C

5.6 C

5.6 C

0 W/m

0.00 mm

08:20

5.6 C

992.3 hpa

92 %

1.6 km/h aus 108

4.8 km/h aus E

4.4 C

5.6 C

5.6 C

5.6 C

0 W/m

0.00 mm

08:25

5.6 C

992.3 hpa

92 %

3.2 km/h aus 108

11.3 km/h aus E

4.4 C

5.6 C

5.6 C

5.6 C

0 W/m

0.00 mm

08:30

5.6 C

992.6 hpa

92 %

3.2 km/h aus 110

8.0 km/h aus ESE

4.4 C

5.6 C

5.6 C

5.6 C

0 W/m

0.00 mm

08:35

5.6 C

992.6 hpa

92 %

3.2 km/h aus 103

6.4 km/h aus ESE

4.4 C

5.6 C

5.6 C

5.6 C

0 W/m

0.00 mm

08:40

5.6 C

992.6 hpa

92 %

3.2 km/h aus 114

6.4 km/h aus ENE

4.4 C

5.6 C

5.6 C

5.6 C

0 W/m

0.00 mm

08:45

5.6 C

992.8 hpa

92 %

3.2 km/h aus 109

6.4 km/h aus ESE

4.4 C

5.6 C

5.6 C

5.6 C

0 W/m

0.00 mm

08:50

5.6 C

992.8 hpa

92 %

1.6 km/h aus 98

4.8 km/h aus ENE

4.4 C

5.6 C

5.6 C

5.6 C

0 W/m

0.00 mm

08:55

5.7 C

992.8 hpa

92 %

1.6 km/h aus 108

4.8 km/h aus ENE

4.5 C

5.7 C

5.7 C

5.7 C

0 W/m

0.00 mm

09:00

5.7 C

993.2 hpa

92 %

3.2 km/h aus 113

4.8 km/h aus N

4.5 C

5.7 C

5.7 C

5.7 C

0 W/m

0.00 mm

09:05

5.7 C

993.2 hpa

92 %

1.6 km/h aus 112

6.4 km/h aus N

4.5 C

5.7 C

5.7 C

5.7 C

0 W/m

0.00 mm

09:10

5.7 C

993.2 hpa

92 %

3.2 km/h aus 108

6.4 km/h aus NE

4.5 C

5.7 C

5.7 C

5.7 C

0 W/m

0.00 mm

09:15

5.7 C

993.5 hpa

92 %

3.2 km/h aus 110

6.4 km/h aus NE

4.5 C

5.7 C

5.7 C

5.7 C

0 W/m

0.00 mm

09:20

5.7 C

993.5 hpa

92 %

1.6 km/h aus 110

3.2 km/h aus NE

4.5 C

5.7 C

5.7 C

5.7 C

0 W/m

0.00 mm

09:25

5.7 C

993.5 hpa

92 %

0.0 km/h aus 111

3.2 km/h aus NE

4.5 C

5.7 C

5.7 C

5.7 C

0 W/m

0.00 mm

09:30

5.7 C

993.7 hpa

92 %

1.6 km/h aus 106

4.8 km/h aus NE

4.5 C

5.7 C

5.7 C

5.7 C

0 W/m

0.00 mm

09:35

5.7 C

993.7 hpa

92 %

0.0 km/h aus 108

3.2 km/h aus NE

4.5 C

5.7 C

5.7 C

5.7 C

0 W/m

0.00 mm

09:40

5.7 C

993.7 hpa

92 %

0.0 km/h aus 111

1.6 km/h aus NE

4.5 C

5.7 C

5.7 C

5.7 C

0 W/m

0.00 mm

09:45

5.7 C

994.1 hpa

92 %

3.2 km/h aus 106

4.8 km/h aus NE

4.5 C

5.7 C

5.7 C

5.7 C

0 W/m

0.00 mm

09:50

5.7 C

994.1 hpa

92 %

3.2 km/h aus 110

6.4 km/h aus NE

4.5 C

5.7 C

5.7 C

5.7 C

0 W/m

0.00 mm

09:55

5.7 C

994.1 hpa

92 %

3.2 km/h aus 112

6.4 km/h aus NE

4.5 C

5.7 C

5.7 C

5.7 C

0 W/m

0.00 mm

10:00

5.8 C

994.2 hpa

92 %

0.0 km/h aus 110

3.2 km/h aus NE

4.6 C

5.8 C

5.8 C

5.8 C

0 W/m

0.00 mm

10:05

5.8 C

994.2 hpa

92 %

0.0 km/h aus 109

3.2 km/h aus NE

4.6 C

5.8 C

5.8 C

5.8 C

0 W/m

0.00 mm

10:10

5.8 C

994.2 hpa

92 %

1.6 km/h aus 107

4.8 km/h aus NE

4.6 C

5.8 C

5.8 C

5.8 C

0 W/m

0.00 mm

10:15

5.9 C

994.5 hpa

92 %

3.2 km/h aus 107

8.0 km/h aus E

4.7 C

5.9 C

5.9 C

5.9 C

0 W/m

0.00 mm

10:20

5.9 C

994.5 hpa

92 %

1.6 km/h aus 111

3.2 km/h aus E

4.7 C

5.9 C

5.9 C

5.9 C

0 W/m

0.00 mm

10:25

6.0 C

994.5 hpa

92 %

1.6 km/h aus 109

4.8 km/h aus E

4.8 C

6.0 C

6.0 C

6.0 C

0 W/m

0.00 mm

10:30

6.1 C

994.8 hpa

93 %

0.0 km/h aus 109

3.2 km/h aus E

5.0 C

6.1 C

6.1 C

6.1 C

0 W/m

0.00 mm

10:35

6.2 C

994.8 hpa

93 %

1.6 km/h aus 110

4.8 km/h aus E

5.1 C

6.2 C

6.2 C

6.2 C

0 W/m

0.00 mm

10:40

6.2 C

994.8 hpa

93 %

0.0 km/h aus 111

3.2 km/h aus E

5.2 C

6.3 C

6.2 C

6.3 C

0 W/m

0.00 mm

10:45

6.3 C

995.2 hpa

93 %

1.6 km/h aus 113

4.8 km/h aus ENE

5.3 C

6.4 C

6.3 C

6.4 C

0 W/m

0.00 mm

10:50

6.4 C

995.2 hpa

93 %

1.6 km/h aus 109

6.4 km/h aus ENE

5.4 C

6.5 C

6.4 C

6.5 C

0 W/m

0.00 mm

10:55

6.5 C

995.2 hpa

93 %

3.2 km/h aus 103

9.7 km/h aus NNE

5.4 C

6.6 C

6.5 C

6.6 C

0 W/m

0.00 mm

11:00

6.6 C

995.3 hpa

93 %

1.6 km/h aus 109

4.8 km/h aus NNE

5.6 C

6.7 C

6.6 C

6.7 C

0 W/m

0.00 mm

11:05

6.7 C

995.3 hpa

93 %

1.6 km/h aus 110

3.2 km/h aus NNE

5.7 C

6.8 C

6.7 C

6.8 C

0 W/m

0.00 mm

11:10

6.8 C

995.3 hpa

92 %

1.6 km/h aus 115

6.4 km/h aus NNE

5.6 C

6.8 C

6.8 C

6.8 C

0 W/m

0.00 mm

11:15

6.8 C

995.4 hpa

92 %

0.0 km/h aus 111

3.2 km/h aus NNE

5.6 C

6.9 C

6.8 C

6.9 C

0 W/m

0.00 mm

11:20

6.8 C

995.4 hpa

92 %

1.6 km/h aus 110

4.8 km/h aus NNE

5.6 C

6.9 C

6.8 C

6.9 C

0 W/m

0.00 mm

11:25

6.8 C

995.4 hpa

91 %

1.6 km/h aus 111

4.8 km/h aus NNE

5.5 C

6.9 C

6.8 C

6.9 C

0 W/m

0.00 mm

11:30

6.9 C

995.7 hpa

91 %

1.6 km/h aus 113

4.8 km/h aus NNE

5.5 C

6.9 C

6.9 C

6.9 C

0 W/m

0.00 mm

11:35

6.9 C

995.7 hpa

90 %

1.6 km/h aus 110

4.8 km/h aus NNE

5.4 C

6.9 C

6.9 C

6.9 C

0 W/m

0.00 mm

11:40

6.9 C

995.7 hpa

90 %

3.2 km/h aus 112

6.4 km/h aus E

5.4 C

7.0 C

6.9 C

7.0 C

0 W/m

0.00 mm

11:45

6.9 C

995.8 hpa

90 %

1.6 km/h aus 112

4.8 km/h aus E

5.4 C

7.0 C

6.9 C

7.0 C

0 W/m

0.00 mm

11:50

6.9 C

995.8 hpa

89 %

0.0 km/h aus 108

1.6 km/h aus E

5.3 C

7.0 C

6.9 C

7.0 C

0 W/m

0.00 mm

11:55

7.0 C

995.8 hpa

89 %

0.0 km/h aus 110

3.2 km/h aus E

5.3 C

7.1 C

7.0 C

7.1 C

0 W/m

0.00 mm

12:00

7.0 C

996.0 hpa

89 %

1.6 km/h aus 113

4.8 km/h aus E

5.3 C

7.1 C

7.0 C

7.1 C

0 W/m

0.00 mm

12:05

7.0 C

996.0 hpa

89 %

0.0 km/h aus 113

1.6 km/h aus E

5.3 C

7.1 C

7.0 C

7.1 C

0 W/m

0.00 mm

12:10

7.1 C

996.0 hpa

89 %

0.0 km/h aus 113

3.2 km/h aus E

5.4 C

7.1 C

7.1 C

7.1 C

0 W/m

0.00 mm

12:15

7.1 C

996.2 hpa

88 %

0.0 km/h aus 109

3.2 km/h aus E

5.2 C

7.1 C

7.1 C

7.1 C

0 W/m

0.00 mm

12:20

7.1 C

996.2 hpa

88 %

1.6 km/h aus 108

3.2 km/h aus E

5.2 C

7.1 C

7.1 C

7.1 C

0 W/m

0.00 mm

12:25

7.1 C

996.2 hpa

88 %

1.6 km/h aus 108

4.8 km/h aus E

5.2 C

7.1 C

7.1 C

7.1 C

0 W/m

0.00 mm

12:30

7.1 C

996.4 hpa

88 %

0.0 km/h aus 114

1.6 km/h aus E

5.3 C

7.1 C

7.1 C

7.1 C

0 W/m

0.00 mm

12:35

7.1 C

996.4 hpa

88 %

0.0 km/h aus 108

1.6 km/h aus E

5.3 C

7.1 C

7.1 C

7.1 C

0 W/m

0.00 mm

12:40

7.1 C

996.4 hpa

88 %

0.0 km/h aus 113

3.2 km/h aus E

5.3 C

7.1 C

7.1 C

7.1 C

0 W/m

0.00 mm

12:45

7.1 C

996.7 hpa

89 %

0.0 km/h aus 109

1.6 km/h aus E

5.4 C

7.2 C

7.1 C

7.2 C

0 W/m

0.00 mm

12:50

7.1 C

996.7 hpa

89 %

0.0 km/h aus 108

3.2 km/h aus E

5.4 C

7.2 C

7.1 C

7.2 C

0 W/m

0.00 mm

12:55

7.1 C

996.7 hpa

89 %

1.6 km/h aus 111

4.8 km/h aus E

5.4 C

7.2 C

7.1 C

7.2 C

0 W/m

0.00 mm

13:00

7.1 C

996.9 hpa

89 %

3.2 km/h aus 107

6.4 km/h aus NNE

5.4 C

7.2 C

7.1 C

7.2 C

0 W/m

0.00 mm

13:05

7.1 C

996.9 hpa

89 %

1.6 km/h aus 114

4.8 km/h aus NNE

5.4 C

7.1 C

7.1 C

7.1 C

0 W/m

0.00 mm

13:10

7.1 C

996.9 hpa

89 %

1.6 km/h aus 112

6.4 km/h aus NNE

5.4 C

7.1 C

7.1 C

7.1 C

0 W/m

0.00 mm

13:15

7.1 C

997.3 hpa

89 %

1.6 km/h aus 116

6.4 km/h aus NNE

5.4 C

7.1 C

7.1 C

7.1 C

0 W/m

0.00 mm

13:20

7.1 C

997.3 hpa

89 %

1.6 km/h aus 112

4.8 km/h aus NNE

5.4 C

7.1 C

7.1 C

7.1 C

0 W/m

0.00 mm

13:25

7.0 C

997.3 hpa

89 %

3.2 km/h aus 116

6.4 km/h aus N

5.3 C

7.1 C

7.0 C

7.1 C

0 W/m

0.00 mm

13:30

7.0 C

997.5 hpa

89 %

3.2 km/h aus 115

8.0 km/h aus N

5.3 C

7.1 C

7.0 C

7.1 C

0 W/m

0.00 mm

13:35

6.9 C

997.5 hpa

89 %

1.6 km/h aus 109

4.8 km/h aus N

5.3 C

7.0 C

6.9 C

7.0 C

0 W/m

0.00 mm

13:40

6.9 C

997.5 hpa

89 %

1.6 km/h aus 109

6.4 km/h aus N

5.3 C

7.0 C

6.9 C

7.0 C

0 W/m

0.00 mm

13:45

6.9 C

997.8 hpa

90 %

1.6 km/h aus 101

6.4 km/h aus NNE

5.4 C

6.9 C

6.9 C

6.9 C

0 W/m

0.00 mm

13:50

6.9 C

997.8 hpa

90 %

3.2 km/h aus 105

6.4 km/h aus NNE

5.4 C

6.9 C

6.9 C

6.9 C

0 W/m

0.00 mm

13:55

6.9 C

997.8 hpa

90 %

3.2 km/h aus 100

6.4 km/h aus NNE

5.4 C

6.9 C

6.9 C

6.9 C

0 W/m

0.00 mm

14:00

6.9 C

998.0 hpa

90 %

1.6 km/h aus 104

4.8 km/h aus NNE

5.4 C

6.9 C

6.9 C

6.9 C

0 W/m

0.00 mm

14:05

6.8 C

998.0 hpa

90 %

1.6 km/h aus 98

4.8 km/h aus NNE

5.3 C

6.9 C

6.8 C

6.9 C

0 W/m

0.00 mm

14:10

6.8 C

998.0 hpa

90 %

3.2 km/h aus 101

6.4 km/h aus NNE

5.3 C

6.9 C

6.8 C

6.9 C

0 W/m

0.00 mm

14:15

6.8 C

998.3 hpa

90 %

3.2 km/h aus 110

4.8 km/h aus NNE

5.3 C

6.9 C

6.8 C

6.9 C

0 W/m

0.00 mm

14:20

6.8 C

998.3 hpa

90 %

3.2 km/h aus 112

6.4 km/h aus NNE

5.3 C

6.9 C

6.8 C

6.9 C

0 W/m

0.00 mm

14:25

6.8 C

998.3 hpa

90 %

1.6 km/h aus 112

4.8 km/h aus NNE

5.3 C

6.9 C

6.8 C

6.9 C

0 W/m

0.00 mm

14:30

6.8 C

998.6 hpa

90 %

3.2 km/h aus 111

8.0 km/h aus NNE

5.3 C

6.9 C

6.8 C

6.9 C

0 W/m

0.00 mm

14:35

6.8 C

998.6 hpa

90 %

3.2 km/h aus 108

9.7 km/h aus NNE

5.3 C

6.8 C

6.8 C

6.8 C

0 W/m

0.00 mm

14:40

6.8 C

998.6 hpa

90 %

4.8 km/h aus 110

8.0 km/h aus N

5.3 C

6.2 C

6.2 C

6.8 C

0 W/m

0.00 mm

14:45

6.8 C

998.9 hpa

90 %

3.2 km/h aus 113

6.4 km/h aus NNE

5.3 C

6.8 C

6.8 C

6.8 C

0 W/m

0.00 mm

14:50

6.7 C

998.9 hpa

90 %

6.4 km/h aus 110

9.7 km/h aus NNE

5.2 C

5.6 C

5.6 C

6.8 C

0 W/m

0.00 mm

14:55

6.7 C

998.9 hpa

91 %

3.2 km/h aus 114

8.0 km/h aus NNE

5.4 C

6.8 C

6.7 C

6.8 C

0 W/m

0.00 mm

15:00

6.7 C

999.3 hpa

91 %

3.2 km/h aus 112

6.4 km/h aus NNE

5.4 C

6.8 C

6.7 C

6.8 C

0 W/m

0.00 mm

15:05

6.7 C

999.3 hpa

91 %

1.6 km/h aus 108

6.4 km/h aus NNE

5.4 C

6.8 C

6.7 C

6.8 C

0 W/m

0.00 mm

15:10

6.7 C

999.3 hpa

91 %

6.4 km/h aus 108

11.3 km/h aus N

5.3 C

5.6 C

5.5 C

6.7 C

0 W/m

0.00 mm

15:15

6.7 C

999.5 hpa

91 %

6.4 km/h aus 113

16.1 km/h aus N

5.3 C

5.6 C

5.5 C

6.7 C

0 W/m

0.00 mm

15:20

6.6 C

999.5 hpa

91 %

8.0 km/h aus 107

16.1 km/h aus NNW

5.2 C

5.1 C

5.0 C

6.6 C

0 W/m

0.00 mm

15:25

6.5 C

999.5 hpa

91 %

8.0 km/h aus 112

19.3 km/h aus N

5.1 C

4.9 C

4.9 C

6.6 C

0 W/m

0.00 mm

15:30

6.4 C

999.9 hpa

91 %

6.4 km/h aus 113

14.5 km/h aus NNW

5.1 C

5.3 C

5.3 C

6.5 C

0 W/m

0.00 mm

15:35

6.4 C

999.9 hpa

91 %

8.0 km/h aus 111

14.5 km/h aus NNW

5.0 C

4.8 C

4.8 C

6.4 C

0 W/m

0.00 mm

15:40

6.3 C

999.9 hpa

91 %

6.4 km/h aus 111

12.9 km/h aus N

5.0 C

5.2 C

5.1 C

6.4 C

0 W/m

0.00 mm

15:45

6.3 C

1000.2 hpa

91 %

6.4 km/h aus 104

14.5 km/h aus N

4.9 C

5.1 C

5.1 C

6.3 C

0 W/m

0.00 mm

15:50

6.3 C

1000.2 hpa

91 %

8.0 km/h aus 112

14.5 km/h aus NNW

4.9 C

4.7 C

4.7 C

6.3 C

0 W/m

0.00 mm

15:55

6.2 C

1000.2 hpa

92 %

8.0 km/h aus 111

14.5 km/h aus NNE

5.0 C

4.5 C

4.5 C

6.2 C

0 W/m

0.00 mm

16:00

6.2 C

1000.5 hpa

92 %

6.4 km/h aus 112

11.3 km/h aus NNW

5.0 C

4.9 C

4.9 C

6.2 C

0 W/m

0.00 mm

16:05

6.1 C

1000.5 hpa

92 %

8.0 km/h aus 110

16.1 km/h aus NNW

4.9 C

4.4 C

4.4 C

6.1 C

0 W/m

0.00 mm

16:10

6.1 C

1000.5 hpa

92 %

6.4 km/h aus 106

11.3 km/h aus NNW

4.9 C

4.9 C

4.9 C

6.1 C

0 W/m

0.00 mm

16:15

6.1 C

1001.0 hpa

92 %

6.4 km/h aus 112

11.3 km/h aus NNW

4.9 C

4.8 C

4.8 C

6.1 C

0 W/m

0.00 mm

16:20

6.1 C

1001.0 hpa

92 %

4.8 km/h aus 114

12.9 km/h aus NNW

4.9 C

5.4 C

5.4 C

6.1 C

0 W/m

0.00 mm

16:25

6.1 C

1001.0 hpa

92 %

6.4 km/h aus 112

14.5 km/h aus NNW

4.9 C

4.8 C

4.8 C

6.1 C

0 W/m

0.00 mm

16:30

6.1 C

1001.2 hpa

92 %

6.4 km/h aus 114

11.3 km/h aus NNW

4.9 C

4.8 C

4.8 C

6.1 C

0 W/m

0.00 mm

16:35

6.1 C

1001.2 hpa

92 %

6.4 km/h aus 113

11.3 km/h aus N

4.9 C

4.8 C

4.8 C

6.1 C

0 W/m

0.00 mm

16:40

6.0 C

1001.2 hpa

92 %

8.0 km/h aus 113

16.1 km/h aus NNW

4.8 C

4.3 C

4.3 C

6.0 C

0 W/m

0.00 mm

16:45

6.0 C

1001.5 hpa

92 %

6.4 km/h aus 109

11.3 km/h aus N

4.8 C

4.8 C

4.8 C

6.0 C

0 W/m

0.00 mm

16:50

5.9 C

1001.5 hpa

92 %

4.8 km/h aus 107

14.5 km/h aus N

4.7 C

5.2 C

5.2 C

5.9 C

0 W/m

0.00 mm

16:55

5.9 C

1001.5 hpa

92 %

6.4 km/h aus 112

11.3 km/h aus N

4.7 C

4.7 C

4.7 C

5.9 C

0 W/m

0.00 mm

17:00

5.9 C

1001.9 hpa

92 %

6.4 km/h aus 114

11.3 km/h aus N

4.7 C

4.7 C

4.7 C

5.9 C

0 W/m

0.00 mm

17:05

5.9 C

1001.9 hpa

92 %

6.4 km/h aus 109

11.3 km/h aus N

4.7 C

4.6 C

4.6 C

5.9 C

0 W/m

0.00 mm

17:10

5.9 C

1001.9 hpa

92 %

6.4 km/h aus 111

11.3 km/h aus N

4.7 C

4.6 C

4.6 C

5.9 C

0 W/m

0.00 mm

17:15

5.9 C

1002.0 hpa

92 %

8.0 km/h aus 110

17.7 km/h aus N

4.7 C

4.2 C

4.2 C

5.9 C

0 W/m

0.00 mm

17:20

5.8 C

1002.0 hpa

92 %

8.0 km/h aus 107

17.7 km/h aus NNW

4.6 C

4.1 C

4.1 C

5.8 C

0 W/m

0.00 mm

17:25

5.8 C

1002.0 hpa

92 %

6.4 km/h aus 111

16.1 km/h aus N

4.6 C

4.6 C

4.6 C

5.8 C

0 W/m

0.00 mm

17:30

5.8 C

1002.4 hpa

92 %

4.8 km/h aus 108

11.3 km/h aus NNW

4.6 C

5.1 C

5.1 C

5.8 C

0 W/m

0.00 mm

17:35

5.8 C

1002.4 hpa

92 %

6.4 km/h aus 108

11.3 km/h aus NNW

4.6 C

4.5 C

4.5 C

5.8 C

0 W/m

0.00 mm

17:40

5.8 C

1002.4 hpa

92 %

6.4 km/h aus 111

9.7 km/h aus NNW

4.6 C

4.5 C

4.5 C

5.8 C

0 W/m

0.00 mm

17:45

5.7 C

1002.5 hpa

92 %

4.8 km/h aus 108

9.7 km/h aus NNE

4.5 C

5.0 C

5.0 C

5.7 C

0 W/m

0.00 mm

17:50

5.7 C

1002.5 hpa

92 %

4.8 km/h aus 105

9.7 km/h aus NNW

4.5 C

5.0 C

5.0 C

5.7 C

0 W/m

0.00 mm

17:55

5.7 C

1002.5 hpa

93 %

4.8 km/h aus 114

11.3 km/h aus N

4.7 C

5.1 C

5.0 C

5.8 C

0 W/m

0.00 mm

18:00

5.7 C

1003.0 hpa

93 %

6.4 km/h aus 111

11.3 km/h aus NNW

4.7 C

4.5 C

4.4 C

5.8 C

0 W/m

0.00 mm

18:05

5.7 C

1003.0 hpa

93 %

4.8 km/h aus 110

12.9 km/h aus NNW

4.6 C

4.9 C

4.9 C

5.7 C

0 W/m

0.00 mm

18:10

5.7 C

1003.0 hpa

93 %

6.4 km/h aus 113

11.3 km/h aus NNW

4.6 C

4.4 C

4.3 C

5.7 C

0 W/m

0.00 mm

18:15

5.7 C

1003.1 hpa

93 %

9.7 km/h aus 109

17.7 km/h aus NNE

4.6 C

3.6 C

3.5 C

5.7 C

0 W/m

0.20 mm

18:20

5.6 C

1003.1 hpa

93 %

6.4 km/h aus 111

11.3 km/h aus NNW

4.6 C

4.3 C

4.3 C

5.7 C

0 W/m

0.00 mm

18:25

5.6 C

1003.1 hpa

93 %

8.0 km/h aus 113

14.5 km/h aus NNW

4.5 C

3.8 C

3.8 C

5.6 C

0 W/m

0.20 mm

18:30

5.6 C

1003.5 hpa

93 %

6.4 km/h aus 114

11.3 km/h aus NW

4.5 C

4.3 C

4.2 C

5.6 C

0 W/m

0.00 mm

18:35

5.6 C

1003.5 hpa

93 %

6.4 km/h aus 109

16.1 km/h aus NNW

4.5 C

4.3 C

4.2 C

5.6 C

0 W/m

0.00 mm

18:40

5.5 C

1003.5 hpa

93 %

4.8 km/h aus 115

9.7 km/h aus NNW

4.5 C

4.8 C

4.7 C

5.6 C

0 W/m

0.00 mm

18:45

5.5 C

1003.7 hpa

93 %

6.4 km/h aus 110

14.5 km/h aus NNW

4.5 C

4.2 C

4.2 C

5.6 C

0 W/m

0.00 mm

18:50

5.5 C

1003.7 hpa

93 %

6.4 km/h aus 113

11.3 km/h aus WNW

4.5 C

4.2 C

4.2 C

5.6 C

0 W/m

0.00 mm

18:55

5.4 C

1003.7 hpa

93 %

6.4 km/h aus 107

11.3 km/h aus N

4.4 C

4.2 C

4.1 C

5.5 C

0 W/m

0.00 mm

19:00

5.4 C

1004.1 hpa

93 %

4.8 km/h aus 111

8.0 km/h aus NNW

4.4 C

4.7 C

4.7 C

5.5 C

0 W/m

0.00 mm

19:05

5.4 C

1004.1 hpa

93 %

3.2 km/h aus 111

9.7 km/h aus NNW

4.3 C

5.4 C

5.4 C

5.4 C

0 W/m

0.00 mm

19:10

5.4 C

1004.1 hpa

93 %

4.8 km/h aus 113

11.3 km/h aus NNW

4.3 C

4.6 C

4.6 C

5.4 C

0 W/m

0.00 mm

19:15

5.4 C

1004.3 hpa

93 %

6.4 km/h aus 107

11.3 km/h aus N

4.3 C

4.1 C

4.1 C

5.4 C

0 W/m

0.00 mm

19:20

5.3 C

1004.3 hpa

93 %

4.8 km/h aus 108

9.7 km/h aus N

4.3 C

4.6 C

4.6 C

5.3 C

0 W/m

0.00 mm

19:25

5.3 C

1004.3 hpa

93 %

4.8 km/h aus 109

11.3 km/h aus N

4.3 C

4.6 C

4.6 C

5.3 C

0 W/m

0.00 mm

19:30

5.3 C

1004.6 hpa

93 %

8.0 km/h aus 104

14.5 km/h aus N

4.3 C

3.5 C

3.5 C

5.3 C

0 W/m

0.00 mm

19:35

5.3 C

1004.6 hpa

93 %

6.4 km/h aus 112

12.9 km/h aus NNW

4.3 C

4.0 C

4.0 C

5.3 C

0 W/m

0.00 mm

19:40

5.3 C

1004.6 hpa

93 %

3.2 km/h aus 107

9.7 km/h aus N

4.3 C

5.3 C

5.3 C

5.3 C

0 W/m

0.00 mm

19:45

5.3 C

1004.8 hpa

93 %

3.2 km/h aus 113

8.0 km/h aus NNW

4.3 C

5.3 C

5.3 C

5.3 C

0 W/m

0.00 mm

19:50

5.3 C

1004.8 hpa

94 %

3.2 km/h aus 105

8.0 km/h aus NNW

4.4 C

5.4 C

5.3 C

5.4 C

0 W/m

0.00 mm

19:55

5.3 C

1004.8 hpa

94 %

3.2 km/h aus 112

6.4 km/h aus N

4.4 C

5.4 C

5.3 C

5.4 C

0 W/m

0.00 mm

20:00

5.3 C

1005.2 hpa

94 %

1.6 km/h aus 106

4.8 km/h aus N

4.4 C

5.4 C

5.3 C

5.4 C

0 W/m

0.00 mm

20:05

5.3 C

1005.2 hpa

94 %

3.2 km/h aus 110

4.8 km/h aus N

4.4 C

5.4 C

5.3 C

5.4 C

0 W/m

0.00 mm

20:10

5.3 C

1005.2 hpa

94 %

3.2 km/h aus 108

6.4 km/h aus N

4.4 C

5.4 C

5.3 C

5.4 C

0 W/m

0.00 mm

20:15

5.3 C

1005.5 hpa

94 %

3.2 km/h aus 114

9.7 km/h aus NNW

4.4 C

5.4 C

5.3 C

5.4 C

0 W/m

0.00 mm

20:20

5.3 C

1005.5 hpa

94 %

4.8 km/h aus 110

12.9 km/h aus NNW

4.4 C

4.6 C

4.6 C

5.4 C

0 W/m

0.00 mm

20:25

5.4 C

1005.5 hpa

94 %

4.8 km/h aus 112

11.3 km/h aus NNW

4.5 C

4.7 C

4.6 C

5.4 C

0 W/m

0.20 mm

20:30

5.4 C

1005.7 hpa

94 %

6.4 km/h aus 109

14.5 km/h aus NNW

4.5 C

4.1 C

4.1 C

5.4 C

0 W/m

0.00 mm

20:35

5.4 C

1005.7 hpa

94 %

8.0 km/h aus 112

16.1 km/h aus NNW

4.5 C

3.6 C

3.6 C

5.4 C

0 W/m

0.00 mm

20:40

5.3 C

1005.7 hpa

94 %

9.7 km/h aus 111

20.9 km/h aus NW

4.4 C

3.2 C

3.1 C

5.4 C

0 W/m

0.00 mm

20:45

5.3 C

1006.1 hpa

94 %

8.0 km/h aus 113

17.7 km/h aus NW

4.4 C

3.6 C

3.5 C

5.4 C

0 W/m

0.00 mm

20:50

5.3 C

1006.1 hpa

94 %

8.0 km/h aus 112

17.7 km/h aus NNW

4.4 C

3.5 C

3.4 C

5.3 C

0 W/m

0.00 mm

20:55

5.3 C

1006.1 hpa

94 %

8.0 km/h aus 110

19.3 km/h aus NNW

4.4 C

3.5 C

3.4 C

5.3 C

0 W/m

0.00 mm

21:00

5.2 C

1006.2 hpa

94 %

9.7 km/h aus 112

20.9 km/h aus N

4.3 C

3.1 C

3.0 C

5.3 C

0 W/m

0.00 mm

21:05

5.2 C

1006.2 hpa

94 %

8.0 km/h aus 111

17.7 km/h aus N

4.3 C

3.4 C

3.3 C

5.2 C

0 W/m

0.00 mm

21:10

5.2 C

1006.2 hpa

94 %

6.4 km/h aus 110

14.5 km/h aus NW

4.3 C

3.8 C

3.8 C

5.2 C

0 W/m

0.00 mm

21:15

5.2 C

1006.7 hpa

94 %

8.0 km/h aus 110

17.7 km/h aus NNW

4.3 C

3.4 C

3.3 C

5.2 C

0 W/m

0.00 mm

21:20

5.1 C

1006.7 hpa

94 %

8.0 km/h aus 108

17.7 km/h aus NNW

4.2 C

3.3 C

3.2 C

5.2 C

0 W/m

0.20 mm

21:25

5.1 C

1006.7 hpa

94 %

8.0 km/h aus 109

16.1 km/h aus NNE

4.2 C

3.2 C

3.2 C

5.1 C

0 W/m

0.00 mm

21:30

5.1 C

1006.9 hpa

94 %

4.8 km/h aus 108

11.3 km/h aus NW

4.2 C

4.3 C

4.2 C

5.1 C

0 W/m

0.20 mm

21:35

5.1 C

1006.9 hpa

94 %

6.4 km/h aus 111

12.9 km/h aus NNW

4.2 C

3.7 C

3.7 C

5.1 C

0 W/m

0.00 mm

21:40

5.1 C

1006.9 hpa

94 %

9.7 km/h aus 106

17.7 km/h aus N

4.2 C

2.8 C

2.8 C

5.1 C

0 W/m

0.00 mm

21:45

5.0 C

1007.2 hpa

94 %

8.0 km/h aus 114

20.9 km/h aus N

4.1 C

3.2 C

3.1 C

5.1 C

0 W/m

0.00 mm

21:50

5.0 C

1007.2 hpa

94 %

6.4 km/h aus 109

11.3 km/h aus N

4.1 C

3.7 C

3.6 C

5.1 C

0 W/m

0.00 mm

21:55

5.0 C

1007.2 hpa

99 %

8.0 km/h aus 111

14.5 km/h aus N

4.9 C

3.2 C

3.1 C

5.1 C

0 W/m

0.20 mm

22:00

4.9 C

1007.4 hpa

94 %

6.4 km/h aus 109

16.1 km/h aus NW

4.1 C

3.6 C

3.6 C

5.0 C

0 W/m

0.00 mm

22:05

4.9 C

1007.4 hpa

94 %

8.0 km/h aus 113

16.1 km/h aus NNE

4.1 C

3.1 C

3.1 C

5.0 C

0 W/m

0.20 mm

22:10

4.9 C

1007.4 hpa

94 %

4.8 km/h aus 111

8.0 km/h aus NNW

4.0 C

4.1 C

4.1 C

4.9 C

0 W/m

0.00 mm

22:15

4.9 C

1007.7 hpa

94 %

3.2 km/h aus 102

8.0 km/h aus NNW

4.1 C

4.9 C

4.9 C

5.0 C

0 W/m

0.20 mm

22:20

4.9 C

1007.7 hpa

94 %

6.4 km/h aus 104

14.5 km/h aus NNW

4.0 C

3.6 C

3.5 C

4.9 C

0 W/m

0.00 mm

22:25

4.9 C

1007.7 hpa

94 %

6.4 km/h aus 108

9.7 km/h aus NW

4.0 C

3.6 C

3.5 C

4.9 C

0 W/m

0.20 mm

22:30

4.9 C

1008.1 hpa

94 %

8.0 km/h aus 108

19.3 km/h aus NNW

4.0 C

3.1 C

3.0 C

4.9 C

0 W/m

0.00 mm

22:35

4.9 C

1008.1 hpa

94 %

9.7 km/h aus 107

20.9 km/h aus N

4.0 C

2.7 C

2.6 C

4.9 C

0 W/m

0.00 mm

22:40

4.8 C

1008.1 hpa

94 %

6.4 km/h aus 111

16.1 km/h aus WNW

3.9 C

3.4 C

3.4 C

4.9 C

0 W/m

0.20 mm

22:45

4.8 C

1008.4 hpa

94 %

6.4 km/h aus 105

14.5 km/h aus NW

3.9 C

3.4 C

3.4 C

4.9 C

0 W/m

0.20 mm

22:50

4.8 C

1008.4 hpa

94 %

6.4 km/h aus 113

16.1 km/h aus NNW

3.9 C

3.4 C

3.3 C

4.8 C

0 W/m

0.00 mm

22:55

4.8 C

1008.4 hpa

94 %

8.0 km/h aus 109

17.7 km/h aus NW

3.9 C

2.9 C

2.9 C

4.8 C

0 W/m

0.20 mm

23:00

4.8 C

1008.8 hpa

94 %

9.7 km/h aus 112

17.7 km/h aus NNW

3.9 C

2.6 C

2.6 C

4.9 C

0 W/m

0.00 mm

23:05

4.8 C

1008.8 hpa

94 %

6.4 km/h aus 108

16.1 km/h aus NNW

3.9 C

3.4 C

3.4 C

4.9 C

0 W/m

0.00 mm

23:10

4.8 C

1008.8 hpa

94 %

8.0 km/h aus 111

14.5 km/h aus NW

3.9 C

3.0 C

2.9 C

4.9 C

0 W/m

0.00 mm

23:15

4.8 C

1008.9 hpa

94 %

6.4 km/h aus 107

11.3 km/h aus NW

3.9 C

3.4 C

3.4 C

4.9 C

0 W/m

0.00 mm

23:20

4.8 C

1008.9 hpa

94 %

6.4 km/h aus 111

11.3 km/h aus NNW

3.9 C

3.4 C

3.4 C

4.9 C

0 W/m

0.20 mm

23:25

4.8 C

1008.9 hpa

94 %

8.0 km/h aus 111

16.1 km/h aus NNW

3.9 C

3.0 C

2.9 C

4.9 C

0 W/m

0.00 mm

23:30

4.8 C

1009.4 hpa

94 %

9.7 km/h aus 107

17.7 km/h aus WNW

3.9 C

2.6 C

2.6 C

4.9 C

0 W/m

0.00 mm

23:35

4.9 C

1009.4 hpa

94 %

8.0 km/h aus 102

17.7 km/h aus NW

4.0 C

3.1 C

3.0 C

4.9 C

0 W/m

0.00 mm

23:40

4.8 C

1009.4 hpa

94 %

11.3 km/h aus 108

20.9 km/h aus NNW

3.9 C

2.2 C

2.2 C

4.9 C

0 W/m

0.20 mm

23:45

4.8 C

1009.5 hpa

94 %

8.0 km/h aus 106

16.1 km/h aus NW

3.9 C

3.0 C

2.9 C

4.9 C

0 W/m

0.20 mm

23:50

4.8 C

1009.5 hpa

94 %

6.4 km/h aus 108

16.1 km/h aus NW

3.9 C

3.4 C

3.4 C

4.9 C

0 W/m

0.00 mm

23:55

4.8 C

1009.5 hpa

94 %

9.7 km/h aus 110

19.3 km/h aus NNW

3.9 C

2.6 C

2.6 C

4.9 C

0 W/m

0.00 mm